This is the latest recevied weather packets stored in our database for station/object DB0NLS-15. If no packets are shown the sender has not sent any weather packets the latest 10 day(s).
| Time | Temp. | Humidity | Pressure | Rain* | Wind** | Luminosity | Snow |
|---|---|---|---|---|---|---|---|
| 1777275932 | 12.22° C | 47% | 1013 hPa | 0 mm | - | - | - |
| 1777275330 | 11.67° C | 49% | 1012.9 hPa | 0 mm | - | - | - |
| 1777274727 | 11.11° C | 53% | 1012.9 hPa | 0 mm | - | - | - |
| 1777274124 | 11.11° C | 53% | 1012.9 hPa | 0 mm | - | - | - |
| 1777273522 | 10° C | 53% | 1012.9 hPa | 0 mm | - | - | - |
| 1777272919 | 10.56° C | 56% | 1013 hPa | 0 mm | - | - | - |
| 1777272316 | 10.56° C | 58% | 1013 hPa | 0 mm | - | - | - |
| 1777271774 | 10° C | 57% | 1012.9 hPa | 0 mm | - | - | - |
| 1777271171 | 8.89° C | 57% | 1013 hPa | 0 mm | - | - | - |
| 1777270569 | 7.78° C | 59% | 1012.9 hPa | 0 mm | - | - | - |
| 1777269966 | 7.22° C | 59% | 1012.9 hPa | 0 mm | - | - | - |
| 1777269363 | 5.56° C | 63% | 1012.9 hPa | 0 mm | - | - | - |
| 1777268761 | 5° C | 64% | 1012.9 hPa | 0 mm | - | - | - |
| 1777268158 | 3.89° C | 67% | 1012.9 hPa | 0 mm | - | - | - |
| 1777267555 | 3.33° C | 67% | 1013 hPa | 0 mm | - | - | - |
| 1777266953 | 2.22° C | 71% | 1012.9 hPa | 0 mm | - | - | - |
| 1777266350 | 1.67° C | 74% | 1012.7 hPa | 0 mm | - | - | - |
| 1777265748 | 1.11° C | 75% | 1012.8 hPa | 0 mm | - | - | - |
| 1777265145 | 0° C | 79% | 1012.8 hPa | 0 mm | - | - | - |
| 1777264542 | -0.56° C | 81% | 1012.7 hPa | 0 mm | - | - | - |
| 1777263939 | -1.11° C | 82% | 1012.7 hPa | 0 mm | - | - | - |
| 1777263337 | -1.67° C | 83% | 1012.6 hPa | 0 mm | - | - | - |
| 1777262733 | -1.67° C | 83% | 1012.6 hPa | 0 mm | - | - | - |
| 1777262131 | -1.67° C | 83% | 1012.6 hPa | 0 mm | - | - | - |
| 1777261528 | -1.67° C | 83% | 1012.6 hPa | 0 mm | - | - | - |
* Rain latest hour (hover to see other rain measurements)
** Current wind speed in m/s (hover to see current wind gust speed)